Location: Unspecified
(48.4338°S, 0.0000°E)
Time: 06:06:36
(UTC+00:00)

Daily predictions for brighter satellites

Satellite Brightness Start Highest point End
(mag) Time Altitude Azimuth Time Altitude Azimuth Time Altitude Azimuth
Helios 1A Rocket 3.0 18:06:59 10° NE 18:09:59 35° ESE 18:13:02 10° S
Cosmos 1500 Rocket 3.6 18:05:39 10° S 18:10:07 63° ESE 18:14:28 10° NNE
Cosmos 2082 Rocket 4.1 18:07:58 10° WNW 18:12:49 28° SW 18:17:42 10° SSE
S3M 4.0 18:07:05 10° N 18:13:11 72° E 18:19:23 10° SSE
USA 290 2.9 18:10:24 10° N 18:13:18 32° ENE 18:16:15 10° SE
Gblst 52 Del rocket 4.5 18:10:21 10° WSW 18:16:15 72° NNW 18:21:46 10° NE
Cosmos 1758 3.1 18:13:22 10° S 18:17:08 78° E 18:20:51 10° NNE
CORIOLIS 4.2 18:12:51 10° SSE 18:18:20 64° ENE 18:23:43 10° N
CZ-4C R/B 3.5 18:09:59 10° NW 18:18:37 63° SW 18:25:36 10° SE
Cosmos 1743 Rocket 3.7 18:17:00 10° S 18:21:18 53° ESE 18:25:34 10° NNE
Cosmos 1666 Rocket 4.5 18:17:56 10° S 18:21:50 28° ESE 18:25:39 10° NE
SL-14 R/B 3.3 18:19:43 10° N 18:23:32 83° W 18:27:24 10° S
MOS 1 Rocket 3.6 18:19:48 10° S 18:24:07 67° WSW 18:28:28 10° NNW
Cosmos 2360 Rocket 2.8 18:20:23 10° SSW 18:26:01 64° WNW 18:31:35 10° NNE
Cosmos 1805 Rocket 3.6 18:21:44 10° S 18:26:08 86° W 18:30:29 10° N
SL-4 R/B 2.1 18:24:09 10° W 18:27:27 51° S 18:30:44 11° ESE
Cosmos 2322 Rocket 3.0 18:23:13 10° SW 18:28:50 56° WNW 18:34:23 10° N
Cosmos 1633 Rocket 4.0 18:26:02 10° S 18:29:52 28° ESE 18:33:40 10° NE
USA 276 3.2 18:28:41 10° N 18:29:58 14° NNE 18:30:39 13° NE
SMAP 3.1 18:26:40 10° SSE 18:31:27 82° ENE 18:36:10 10° NNW
SL-16 R/B 4.3 18:26:46 10° SW 18:31:45 31° WNW 18:36:40 10° NNW
Cosmos 2322 4.2 18:26:54 10° SSW 18:32:20 42° SE 18:37:44 10° ENE
Cosmos 1937 Rocket 3.6 18:28:27 10° SSW 18:33:36 55° ESE 18:38:44 10° NE
USA 215 3.3 18:27:56 10° SE 18:34:33 81° NE 18:41:08 10° NW
Cosmos 540 Rocket 4.4 18:30:56 10° NW 18:35:57 53° WSW 18:41:02 10° SSE
USA 81 4.3 18:32:13 10° S 18:37:36 80° W 18:42:53 10° N
YAOGAN 1 3.5 18:34:01 10° SE 18:37:40 26° E 18:41:17 10° NNE
Cosmos 2237 Rocket 3.5 18:34:17 10° S 18:38:44 23° SE 18:42:07 14° E
CBERS-1 4.1 18:34:23 10° SSE 18:39:35 86° WSW 18:44:44 10° NNW
ARIANE 5 R/B 2.7 18:35:37 10° SSE 18:40:34 49° E 18:45:25 10° N
Cosmos 2315 Rocket 4.0 18:34:17 10° N 18:40:37 88° E 18:46:58 10° S
Cosmos 841 Rocket 3.6 18:39:08 10° N 18:44:18 58° ENE 18:49:30 10° SSE
Cosmos 372 Rocket 4.3 18:41:47 10° SSW 18:46:55 70° WNW 18:52:02 10° NNE
Cosmos 2184 Rocket 4.3 18:41:29 10° S 18:47:32 45° ESE 18:53:34 10° NE
Cosmos 1703 3.3 18:47:28 10° NNE 18:50:30 36° E 18:53:35 10° SSE
CZ-2D R/B 2.6 18:47:58 10° SSE 18:51:01 56° ENE 18:54:00 10° N
SL-8 R/B 4.1 18:46:51 10° W 18:51:36 59° NNW 18:55:24 16° NE
AQUARIUS 4.1 18:47:14 10° SSE 18:51:45 74° ENE 18:56:11 10° N
IRS-P3 4.4 18:48:12 10° SSE 18:53:22 43° E 18:58:28 10° N
COSMOS 2428 2.9 18:50:14 10° SSW 18:55:54 54° ESE 19:00:47 14° NE
SPOT 1/Viking Rocket 3.5 18:51:16 10° SSE 18:56:30 72° ENE 19:01:41 10° N
GEOS 3 Rocket 3.5 18:58:26 10° SE 19:03:30 80° NE 19:08:36 10° NW
NOSS 0 Rocket 4.1 18:59:49 10° SSW 19:05:56 53° SE 19:10:19 19° NE
CZ-3 Stage 3 4.4 18:55:41 10° WNW 19:06:19 22° NNW 19:11:08 10° NNE
Cosmos 2219 Rocket 3.1 19:01:47 10° SW 19:07:18 50° WNW 19:12:43 10° N
USA 267 3.5 19:01:46 10° NE 19:08:18 67° NW 19:14:54 10° WSW
Cosmos 1953 2.0 19:06:49 10° S 19:10:32 67° E 19:13:47 13° NNE
Meteor 1-13 Rocket 4.3 19:06:33 10° N 19:12:25 74° E 19:18:27 10° SSE
SKYMED 3 4.2 19:09:43 10° NNE 19:13:41 76° ESE 19:17:43 10° S
Cosmos 1340 Rocket 2.9 19:13:12 10° SSW 19:17:07 71° W 19:20:57 10° N
SJ-12 4.1 19:14:05 10° S 19:17:55 66° WSW 19:21:41 10° NNW
Nadezhda 1 Rocket 4.1 19:18:00 10° NNE 19:23:48 47° E 19:29:44 10° SSE
Cosmos 1470 Rocket 3.5 19:19:50 10° S 19:24:20 63° ESE 19:27:03 23° NNE
Cosmos 2074 Rocket 3.9 19:21:20 10° S 19:27:41 86° E 19:33:56 10° N
Resurs 01 Rocket 1.8 19:25:42 10° SSE 19:30:03 45° E 19:33:05 18° NNE
Cosmos 1933 Rocket 4.3 19:27:46 10° S 19:31:24 34° ESE 19:31:24 34° ESE
Cosmos 2297 Rocket 2.6 19:30:33 10° N 19:35:44 38° ENE 19:36:31 36° E
Thor Agena Rocket 4.4 19:31:01 10° S 19:36:09 54° WSW 19:41:17 10° NW
NOSS 3-4 (A) 4.0 19:31:44 10° SW 19:38:54 62° WNW 19:43:35 18° NNE
NOSS 3-4 (C) 4.0 19:32:11 10° SW 19:39:21 62° WNW 19:43:57 18° NNE
SL-08 R/B 3.7 19:34:50 10° N 19:39:43 69° WNW 19:44:37 10° SSW
SL-16 R/B 3.6 19:37:06 10° S 19:41:27 22° SE 19:42:02 21° SE
NOAA 6 4.0 19:37:03 10° SSE 19:42:15 59° E 19:47:22 10° N
Cosmos 1125 Rocket 4.4 19:40:35 10° S 19:45:10 31° SE 19:45:10 31° SE
SAR-Lupe-1 3.9 19:41:53 10° SSE 19:45:33 88° ENE 19:46:11 59° NNW
SL-8 Rocket 4.4 19:40:05 10° S 19:45:57 40° ESE 19:46:38 39° E
SL-19 R/B 4.5 19:41:37 10° SSE 19:47:17 46° E 19:48:24 41° NE
CZ-2D R/B 3.3 19:43:57 10° SSE 19:48:12 85° ENE 19:52:26 10° NNW
ATLAS 2AS CENTAUR R/B 4.5 19:43:33 10° SW 19:49:23 24° S 19:54:25 13° SE
Meteor 1-12 Rocket 4.1 19:44:00 10° S 19:49:46 75° ESE 19:52:29 33° NNE
Resurs 1-3 4.3 19:45:55 10° S 19:50:12 53° WSW 19:54:25 10° NNW
Cosmos 192 4.3 19:45:48 10° SSW 19:50:43 59° ESE 19:51:08 57° E
Cosmos 1328 Rocket 4.5 19:46:25 10° NNW 19:50:45 50° WSW 19:55:08 10° S
Cosmos 2366 rocket 4.4 19:44:51 10° S 19:50:56 41° ESE 19:51:29 40° E
Cosmos 1610 Rocket 4.4 19:44:37 10° S 19:51:05 80° E 19:55:37 21° NNE
Meteor 1-16 Rocket 4.2 19:47:10 10° SSW 19:52:43 83° W 19:56:41 20° N
Cosmos 2084 Rocket 3.3 19:50:42 10° SW 19:54:54 77° NW 19:55:06 74° NNW
Cosmos 2327 Rocket 4.4 19:48:45 10° S 19:54:57 60° ESE 19:56:34 45° NE
Gbstr 26 Del rocket 4.2 19:50:07 10° WSW 19:58:00 87° SSE 20:00:24 46° ENE
PSLV R/B 4.4 19:53:53 10° SSE 19:56:22 35° SSE 19:56:22 35° SSE
Cosmos 44 4.4 19:55:07 10° SSW 19:58:06 26° SSE 19:58:06 26° SSE
Meteor 1-21 4.3 19:57:49 10° NNW 20:03:26 75° WSW 20:09:11 10° S
Cosmos 489 Rocket 4.4 19:57:25 10° N 20:03:31 57° ENE 20:09:39 10° SSE
SAR-Lupe-4 4.3 20:01:07 10° S 20:04:41 53° WSW 20:08:13 10° NNW
SL-4 R/B 2.7 20:01:43 10° WSW 20:04:14 41° SW 20:04:14 41° SW
Cosmos 2218 Rocket 4.2 20:00:01 10° S 20:06:15 48° ESE 20:06:21 48° ESE
CZ-4C R/B 4.4 20:01:34 10° WSW 20:08:12 28° SSW 20:13:39 10° SE
RESURS DK-1 3.8 20:07:15 10° SSW 20:09:30 27° S 20:09:30 27° S
YAOGAN 1 4.1 20:09:35 10° S 20:13:35 36° WSW 20:17:30 10° NW
USA 215 3.9 20:13:24 23° SE 20:17:22 52° SSW 20:23:41 10° W
Cosmos 2237 Rocket 2.1 20:17:47 10° SSW 20:23:29 83° WNW 20:23:56 75° N
Cosmos 1980 3.7 20:17:48 10° SSW 20:23:34 77° WNW 20:24:13 68° N
Cosmos 1515 Rocket 4.3 20:25:09 36° NW 20:26:35 51° WSW 20:30:58 10° S
Cosmos 1821 Rocket 4.4 20:27:55 10° S 20:32:42 46° SE 20:32:42 46° SE
Cosmos 1814 Rocket 4.2 20:30:25 10° NNW 20:35:45 71° WSW 20:41:11 10° SSE
Cosmos 2341 Rocket 3.9 20:31:45 10° S 20:38:10 88° E 20:38:17 86° NE
COSMOS 2428 4.4 20:34:58 10° SW 20:39:49 29° WNW 20:42:48 18° NNW
Resurs 01 Rocket 3.9 21:02:35 10° SSW 21:06:08 23° WSW 21:09:40 10° WNW
Cosmos 2297 Rocket 3.4 21:14:21 10° WNW 21:23:00 22° S 21:25:09 10° SSE
SL-16 R/B 3.5 21:20:36 10° SSW 21:23:53 36° SSW 21:23:53 36° SSW
ATLAS 2AS CENTAUR R/B 3.9 21:35:49 10° SW 21:41:49 35° SSE 21:41:49 35° SSE
CZ-4C R/B 4.4 21:53:32 10° SW 21:58:38 21° S 21:58:40 21° S
USA 215 4.3 22:00:46 40° SSW 22:00:46 40° SSW 22:05:48 10° WSW
ACS3 Solar Sail 4.3 23:04:16 13° SSE 23:04:16 13° SSE 23:05:04 10° SSE
